N4AN Weather Reports


Display with metric or nautical units.
time (UTC)temp
F
wind
direction
speed
MPH
gust
MPH
rain 1hr
in
rain 24hr
in
rain mn
in
humidity
%
barometer
mb
20260503043751 79 255 24.0 0.0 0.00 0.00 0.00 79 1008.4
20260503043253 80 264 28.0 0.0 0.00 0.00 0.00 79 1008.3
20260503042750 80 255 26.0 0.0 0.00 0.00 0.00 78 1008.2
20260503042247 80 243 25.0 0.0 0.00 0.00 0.00 78 1008.3
20260503040002 80 260 14.0 0.0 0.00 0.00 0.00 77 1008.4
20260503034654 80 277 14.0 0.0 0.00 0.00 0.00 76 1008.4
20260503034158 80 274 23.0 0.0 0.00 0.00 0.00 76 1008.2
20260503033645 80 274 12.0 0.0 0.00 0.00 0.00 75 1008.2
20260503033140 80 335 11.0 0.0 0.00 0.00 0.00 75 1007.9
20260503032640 80 255 25.0 0.0 0.00 0.00 0.00 75 1007.7
20260503032113 80 262 28.0 0.0 0.00 0.00 0.00 75 1007.8
20260503031613 81 264 27.0 0.0 0.00 0.00 0.00 74 1007.8
20260503031113 81 248 25.0 0.0 0.00 0.00 0.00 74 1008.0
20260503030613 81 293 29.0 0.0 0.00 0.00 0.00 73 1007.7
20260503030112 81 288 24.0 0.0 0.00 0.00 0.00 73 1007.7
20260503025612 81 276 11.0 0.0 0.00 0.00 0.00 74 1007.7
20260503025112 81 276 24.0 0.0 0.00 0.00 0.00 74 1007.6
20260503024611 81 236 14.0 0.0 0.00 0.00 0.00 74 1007.6
20260503024111 81 259 22.0 0.0 0.00 0.00 0.00 73 1007.7
20260503023611 81 276 18.0 0.0 0.00 0.00 0.00 73 1007.8
20260503022610 81 274 27.0 0.0 0.00 0.00 0.00 72 1007.6
20260503022109 81 265 23.0 0.0 0.00 0.00 0.00 72 1007.6
20260503021608 82 267 17.0 0.0 0.00 0.00 0.00 72 1007.6
20260503021108 82 272 28.0 0.0 0.00 0.00 0.00 71 1007.5
20260503020608 82 255 17.0 0.0 0.00 0.00 0.00 71 1007.6
20260503020108 82 319 22.0 0.0 0.00 0.00 0.00 70 1007.4
20260503015607 82 248 26.0 0.0 0.00 0.00 0.00 70 1007.4
20260503015107 82 274 25.0 0.0 0.00 0.00 0.00 69 1007.3
20260503014607 82 253 34.0 0.0 0.00 0.00 0.00 69 1007.2
20260503014228 82 264 25.0 0.0 0.00 0.00 0.00 67 1007.2
20260503014222 82 258 28.0 0.0 0.00 0.00 0.00 68 1007.2
20260503014150 82 258 28.0 0.0 0.00 0.00 0.00 68 1007.2
20260503012604 83 262 25.0 0.0 0.00 0.00 0.00 66 1007.1
20260503012104 83 274 26.0 0.0 0.00 0.00 0.00 65 1007.1
20260503011604 83 257 27.0 0.0 0.00 0.00 0.00 64 1007.0
20260503011101 84 260 31.0 0.0 0.00 0.00 0.00 62 1006.9
20260503010601 84 259 32.0 0.0 0.00 0.00 0.00 62 1006.9
20260503010100 84 269 30.0 0.0 0.00 0.00 0.00 60 1006.8
20260503005557 84 290 23.0 0.0 0.00 0.00 0.00 59 1006.9
20260503005058 85 272 32.0 0.0 0.00 0.00 0.00 59 1006.7
20260503004557 85 250 16.0 0.0 0.00 0.00 0.00 58 1006.8
20260503004056 85 262 22.0 0.0 0.00 0.00 0.00 57 1006.7
20260503003556 85 272 7.0 0.0 0.00 0.00 0.00 57 1006.5
20260503003056 85 274 14.0 0.0 0.00 0.00 0.00 56 1006.5
20260503002555 86 283 13.0 0.0 0.00 0.00 0.00 55 1006.4
20260503002055 86 293 15.0 0.0 0.00 0.00 0.00 55 1006.4
20260503001555 86 278 15.0 0.0 0.00 0.00 0.00 54 1006.3
20260503001055 86 46 7.0 0.0 0.00 0.00 0.00 54 1006.3
20260503000554 87 271 31.0 0.0 0.00 0.00 0.00 53 1006.1
20260503000054 87 291 13.0 0.0 0.00 0.00 0.00 52 1006.0
20260502235554 87 271 26.0 0.0 0.00 0.00 0.00 50 1005.9
20260502235056 88 341 18.0 0.0 0.00 0.00 0.00 49 1005.9
20260502234552 88 263 23.0 0.0 0.00 0.00 0.00 48 1005.9
20260502234052 88 238 13.0 0.0 0.00 0.00 0.00 48 1005.7
20260502233552 88 250 8.0 0.0 0.00 0.00 0.00 47 1005.6
20260502233051 88 277 17.0 0.0 0.00 0.00 0.00 46 1005.6
20260502232551 89 295 8.0 0.0 0.00 0.00 0.00 46 1005.5
20260502232048 89 343 12.0 0.0 0.00 0.00 0.00 46 1005.5
20260502231547 89 257 16.0 0.0 0.00 0.00 0.00 46 1005.4
20260502231040 89 327 15.0 0.0 0.00 0.00 0.00 45 1005.2
20260502230543 89 223 19.0 0.0 0.00 0.00 0.00 45 1005.3
20260502230040 89 320 17.0 0.0 0.00 0.00 0.00 45 1005.2
20260502225538 89 326 9.0 0.0 0.00 0.00 0.00 45 1005.1
20260502225038 89 252 24.0 0.0 0.00 0.00 0.00 45 1005.0
20260502224037 89 306 6.0 0.0 0.00 0.00 0.00 47 1004.9
20260502223537 89 264 29.0 0.0 0.00 0.00 0.00 47 1005.1
20260502222602 90 253 34.0 0.0 0.00 0.00 0.00 46 1004.8
20260502222057 90 328 10.0 0.0 0.00 0.00 0.00 46 1005.0
20260502220254 90 285 22.0 0.0 0.00 0.00 0.00 45 1004.9
20260502215658 90 283 18.0 0.0 0.00 0.00 0.00 45 1004.8
20260502215154 90 310 15.0 0.0 0.00 0.00 0.00 44 1004.9
20260502214654 90 248 20.0 0.0 0.00 0.00 0.00 44 1004.9
20260502214154 90 250 24.0 0.0 0.00 0.00 0.00 44 1004.7
20260502212933 91 291 21.0 0.0 0.00 0.00 0.00 43 1004.8
20260502212428 91 308 14.0 0.0 0.00 0.00 0.00 43 1004.7
20260502211928 90 352 17.0 0.0 0.00 0.00 0.00 43 1004.5
20260502210928 91 271 27.0 0.0 0.00 0.00 0.00 42 1004.6
20260502210427 91 262 12.0 0.0 0.00 0.00 0.00 43 1004.5
20260502205927 91 295 14.0 0.0 0.00 0.00 0.00 45 1004.6
20260502205427 91 274 15.0 0.0 0.00 0.00 0.00 45 1004.6
20260502204927 90 259 27.0 0.0 0.00 0.00 0.00 43 1004.6
20260502204426 90 269 32.0 0.0 0.00 0.00 0.00 44 1004.6
20260502203926 90 255 30.0 0.0 0.00 0.00 0.00 45 1004.6
20260502203425 90 49 4.0 0.0 0.00 0.00 0.00 46 1004.6
20260502202925 90 239 21.0 0.0 0.00 0.00 0.00 45 1004.5
20260502202425 91 257 20.0 0.0 0.00 0.00 0.00 46 1004.5
20260502201925 90 223 33.0 0.0 0.00 0.00 0.00 46 1004.6
20260502201424 91 241 53.0 0.0 0.00 0.00 0.00 46 1004.5
20260502200924 91 239 23.0 0.0 0.00 0.00 0.00 48 1004.7
20260502200424 91 221 18.0 0.0 0.00 0.00 0.00 48 1004.8
20260502195923 91 238 40.0 0.0 0.00 0.00 0.00 47 1004.7
20260502195423 90 236 39.0 0.0 0.00 0.00 0.00 48 1004.7
20260502194923 90 245 30.0 0.0 0.00 0.00 0.00 49 1004.8
20260502194423 90 243 45.0 0.0 0.00 0.00 0.00 48 1005.0
20260502193922 90 230 35.0 0.0 0.00 0.00 0.00 47 1004.9
20260502193418 91 226 9.0 0.0 0.00 0.00 0.00 51 1004.9
20260502192918 91 245 31.0 0.0 0.00 0.00 0.00 51 1004.9
20260502192418 91 257 31.0 0.0 0.00 0.00 0.00 51 1005.2
20260502191917 90 253 18.0 0.0 0.00 0.00 0.00 52 1005.0
20260502191417 90 223 25.0 0.0 0.00 0.00 0.00 54 1005.0
20260502190917 90 101 10.0 0.0 0.00 0.00 0.00 54 1005.4
20260502190417 89 28 5.0 0.0 0.00 0.00 0.00 58 1005.2
20260502185913 88 56 3.0 0.0 0.00 0.00 0.00 70 1005.4
20260502185413 88 42 4.0 0.0 0.00 0.00 0.00 65 1005.4
20260502184913 86 93 8.0 0.0 0.00 0.00 0.00 66 1005.3
20260502184413 85 30 4.0 0.0 0.00 0.00 0.00 76 1005.2
20260502183912 85 118 5.0 0.0 0.00 0.00 0.00 75 1005.3
20260502183412 85 130 12.0 0.0 0.00 0.00 0.00 76 1005.3
20260502182909 84 324 2.0 0.0 0.00 0.00 0.00 79 1005.4
20260502182409 83 96 7.0 0.0 0.00 0.00 0.00 79 1005.6
20260502181909 83 81 5.0 0.0 0.00 0.00 0.00 79 1005.5
20260502181409 83 63 6.0 0.0 0.00 0.00 0.00 79 1005.6
20260502180908 83 86 13.0 0.0 0.00 0.00 0.00 78 1005.5
20260502180408 84 86 12.0 0.0 0.00 0.00 0.00 78 1005.5
20260502170401 83 82 10.0 0.0 0.00 0.00 0.00 80 1005.7
20260502163859 84 88 14.0 0.0 0.00 0.00 0.00 80 1006.0
20260502163359 84 248 10.0 0.0 0.00 0.00 0.00 80 1006.0
20260502162859 84 89 6.0 0.0 0.00 0.00 0.00 79 1006.1
20260502162358 84 20 5.0 0.0 0.00 0.00 0.00 79 1006.2
20260502161858 85 37 4.0 0.0 0.00 0.00 0.00 79 1006.3
20260502161401 85 30 9.0 0.0 0.00 0.00 0.00 78 1006.4
20260502160858 85 88 5.0 0.0 0.00 0.00 0.00 78 1006.3
20260502160357 85 146 8.0 0.0 0.00 0.00 0.00 78 1006.4
20260502151852 84 88 5.0 0.0 0.00 0.00 0.00 78 1006.7
20260502151351 84 88 10.0 0.0 0.00 0.00 0.00 79 1006.7
20260502150351 84 89 8.0 0.0 0.00 0.00 0.00 79 1006.7
20260502130333 83 74 5.0 0.0 0.00 0.00 0.00 80 1006.1
20260502123325 81 11 5.0 0.0 0.00 0.00 0.00 82 1006.4
20260502122323 81 68 3.0 0.0 0.00 0.00 0.00 82 1006.2
20260502121822 81 81 2.0 0.0 0.00 0.00 0.00 83 1006.4
20260502121321 81 63 2.0 0.0 0.00 0.00 0.00 83 1006.3
20260502120820 80 89 6.0 0.0 0.00 0.00 0.00 84 1006.2
20260502120320 80 88 6.0 0.0 0.00 0.00 0.00 84 1006.2
20260502115820 80 355 5.0 0.0 0.00 0.00 0.00 84 1006.2
20260502115320 80 152 5.0 0.0 0.00 0.00 0.00 84 1006.2
20260502114819 79 89 2.0 0.0 0.00 0.00 0.00 84 1006.4
20260502114317 79 83 5.0 0.0 0.00 0.00 0.00 84 1006.5
20260502113817 79 144 6.0 0.0 0.00 0.00 0.00 84 1006.5
20260502113314 79 98 3.0 0.0 0.00 0.00 0.00 84 1006.5
20260502112814 79 89 4.0 0.0 0.00 0.00 0.00 84 1006.5
20260502112313 79 56 2.0 0.0 0.00 0.00 0.00 84 1006.6
20260502111813 79 82 3.0 0.0 0.00 0.00 0.00 84 1006.5
20260502111313 79 89 5.0 0.0 0.00 0.00 0.00 84 1006.4
20260502110812 79 208 2.0 0.0 0.00 0.00 0.00 84 1006.5
20260502110312 79 1 3.0 0.0 0.00 0.00 0.00 84 1006.4
20260502105812 79 115 8.0 0.0 0.00 0.00 0.00 84 1006.4
20260502105311 79 119 3.0 0.0 0.00 0.00 0.00 84 1006.4
20260502104811 79 156 5.0 0.0 0.00 0.00 0.00 84 1006.5
20260502104309 78 240 5.0 0.0 0.00 0.00 0.00 85 1006.4
20260502103805 78 337 4.0 0.0 0.00 0.00 0.00 85 1006.3
20260502103305 78 178 10.0 0.0 0.00 0.00 0.00 85 1006.4
20260502102806 78 331 2.0 0.0 0.00 0.00 0.00 86 1006.3
20260502102306 77 184 13.0 0.0 0.00 0.00 0.00 86 1006.3
20260502101801 77 188 9.0 0.0 0.00 0.00 0.00 86 1006.3
20260502101301 77 181 8.0 0.0 0.00 0.00 0.00 86 1006.4
20260502100801 77 184 5.0 0.0 0.00 0.00 0.00 85 1006.5
20260502100300 77 183 6.0 0.0 0.00 0.00 0.00 85 1006.5
20260502091251 77 215 3.0 0.0 0.00 0.00 0.00 85 1006.3
20260502090843 77 230 6.0 0.0 0.00 0.00 0.00 85 1006.3
20260502090749 77 230 4.0 0.0 0.00 0.00 0.00 85 1006.4
20260502090249 77 178 1.0 0.0 0.00 0.00 0.00 85 1006.2
20260502071222 77 238 8.0 0.0 0.00 0.00 0.00 84 1006.2
20260502070722 78 246 6.0 0.0 0.00 0.00 0.00 84 1006.3
20260502070222 78 194 2.0 0.0 0.00 0.00 0.00 84 1006.2
20260502065718 78 220 10.0 0.0 0.00 0.00 0.00 84 1006.3
20260502065218 78 215 5.0 0.0 0.00 0.00 0.00 84 1006.3
20260502064718 78 207 11.0 0.0 0.00 0.00 0.00 84 1006.3
20260502064211 78 227 10.0 0.0 0.00 0.00 0.00 84 1006.3
20260502063711 78 198 9.0 0.0 0.00 0.00 0.00 84 1006.3
20260502063208 78 243 5.0 0.0 0.00 0.00 0.00 84 1006.3
20260502062708 78 200 6.0 0.0 0.00 0.00 0.00 84 1006.3
20260502062208 78 276 4.0 0.0 0.00 0.00 0.00 84 1006.3
20260502061206 78 46 3.0 0.0 0.00 0.00 0.00 85 1006.4
20260502060703 78 23 4.0 0.0 0.00 0.00 0.00 85 1006.3
20260502060203 78 81 4.0 0.0 0.00 0.00 0.00 85 1006.2
20260502055702 78 89 2.0 0.0 0.00 0.00 0.00 85 1006.2
20260502055202 78 96 5.0 0.0 0.00 0.00 0.00 84 1006.4
20260502054657 78 79 3.0 0.0 0.00 0.00 0.00 84 1006.3
20260502054157 78 88 3.0 0.0 0.00 0.00 0.00 84 1006.3
20260502053657 78 89 3.0 0.0 0.00 0.00 0.00 84 1006.2
20260502052656 78 89 8.0 0.0 0.00 0.00 0.00 84 1006.3
20260502052154 78 77 5.0 0.0 0.00 0.00 0.00 84 1006.5
20260502051653 78 84 3.0 0.0 0.00 0.00 0.00 84 1006.5
20260502051153 78 82 4.0 0.0 0.00 0.00 0.00 84 1006.6
20260502050653 78 95 2.0 0.0 0.00 0.00 0.00 84 1006.6
20260502050153 78 89 3.0 0.0 0.00 0.00 0.00 84 1006.8
20260502045651 78 84 5.0 0.0 0.00 0.00 0.00 84 1006.8
20260502045151 79 82 7.0 0.0 0.00 0.00 0.00 84 1006.7
20260502044650 79 102 3.0 0.0 0.00 0.00 0.00 84 1006.8
20260502044150 79 89 5.0 0.0 0.00 0.00 0.00 84 1006.9